Regional Weather Roundup
Issued by NWS

Home | Current Version | Previous Version | Text Only | Print | Product List | Glossary On
Versions: 1 2 3 4 5 6 7 8 9 10 11 12 13 14 15 16 17 18 19 20 21 22 23 24 25 26 27 28 29 30 31 32 33 34 35 36 37 38 39 40 41 42 43 44 45 46 47 48 49 50
000
ASUS44 KFWD 201010
RWRTX
NORTH TEXAS HOURLY WEATHER ROUNDUP
NATIONAL WEATHER SERVICE FORT WORTH TX
500 AM CDT SUN APR 20 2014

NOTE: "FAIR" INDICATES FEW OR NO CLOUDS BELOW 12,000 FEET WITH NO
SIGNIFICANT WEATHER AND/OR OBSTRUCTIONS TO VISIBILITY.

TXZ118-119-201100-
DALLAS/FORT WORTH METROPLEX

CITY           SKY/WX    TMP DP  RH WIND       PRES   REMARKS
DFW AIRPORT    MOCLDY    66  54  65 S12       30.08R
DALLAS LOVE    CLOUDY    65  54  67 S10       30.09S
FTW MEACHAM    MOCLDY    66  54  65 S12       30.08R
DAL-EXECUTIVE  MOCLDY    65  55  70 S5        30.10R
FTW-ALLIANCE   CLOUDY    63  53  70 S6        30.08R
FTW-NAS-JRB    MOCLDY    67  52  58 S10       30.13R
FTW-SPINKS     PTCLDY    63  54  74 S8        30.11R
ARLINGTON      PTCLDY    63  54  72 S7        30.10R
GRAND PRAIRIE  MOCLDY    63  54  72 S6        30.12S
ADDISON        MOCLDY    66  54  65 S10       30.11R
MESQUITE       MOCLDY    59  55  85 S6        30.11R
LANCASTER      MOCLDY    61  54  78 S6        30.11S
$$

TXZ091>094-102>105-117-120-121-131>134-201100-
NORTH CENTRAL TEXAS

CITY           SKY/WX    TMP DP  RH WIND       PRES   REMARKS
SHRMAN/DENISON MOCLDY    62  51  66 SE8       30.11R
GAINESVILLE    CLOUDY    59  53  79 CALM      30.12R
BOWIE          LGT RAIN  63  55  75 SE6       30.08R
BRIDGEPORT     CLOUDY    65  52  62 S12       30.07F
DECATUR        CLOUDY    64  53  67 SE14      30.07F
DENTON         CLOUDY    60  55  83 S7        30.08R
MCKINNEY       CLOUDY    58  54  86 S7        30.10S
GREENVILLE     PTCLDY    55  52  88 SE5       30.11S
ROCKWALL       MOCLDY    63  55  75 SE7       30.10R
TERRELL        MOCLDY    63  59  87 S6        30.12S
WAXAHACHIE     MOCLDY    60  54  79 S5        30.12S
CLEBURNE       PTCLDY    61  57  88 S7        30.12S
GRANBURY       MOCLDY    62  55  76 SE6       30.10S
$$

TXZ083>090-098>101-113>116-127>130-139>142-154-155-201100-
WESTERN NORTH TEXAS

CITY           SKY/WX    TMP DP  RH WIND       PRES   REMARKS
WICHITA FALLS  CLOUDY    63  53  70 SE8       30.05R
WF-KICKAPOO    CLOUDY    63  53  70 S6        30.07S
VERNON         CLOUDY    63  55  75 SE3       30.08R
ABILENE        CLOUDY    64  52  64 SE14      30.04F
ABILENE-DYESS  CLOUDY    63  55  74 S14       30.03F
BRECKENRIDGE   CLOUDY    66  54  65 S12       30.07R
GRAHAM         CLOUDY    64  54  70 S5        30.06R
MINERAL WELLS  CLOUDY    62  54  74 SW9G16    30.06S
STEPHENVILLE   CLOUDY    60  54  78 S8        30.12S
COMANCHE       CLOUDY    60  54  79 S3        30.11R
BROWNWOOD      CLOUDY    63  55  77 SE6       30.10S
COLEMAN        CLOUDY    62  53  71 S7        30.08F
BRADY          CLOUDY    64  55  72 S3        30.10R
$$

TXZ143>147-156>162-174-175-201100-
CENTRAL TEXAS

CITY           SKY/WX    TMP DP  RH WIND       PRES   REMARKS
WACO           MOCLDY    62  57  83 S8        30.11F
WACO-MCGREGOR  MOCLDY    57  52  82 S6        30.13F
HILLSBORO      PTCLDY    62  55  77 S7        30.12S
CORSICANA      MOCLDY    64  57  78 S5        30.13F
MEXIA          PTCLDY    61  58  90 S5        30.12F
HEARNE         CLEAR     56  54  95 CALM      30.14S FOG
CAMERON        CLEAR     57  55  94 SE3       30.12F
TEMPLE         MOCLDY    57  52  82 SE5       30.15F
KILLEEN        MOCLDY    59  55  88 S6        30.11S
KILLEEN-SKYLRK CLEAR    N/A N/A N/A SE3       30.11S
GATESVILLE     PTCLDY    55  54  94 CALM      30.14S
HAMILTON       MOCLDY    59  55  84 S8        30.11S
LAMPASAS       CLOUDY    60  57  89 E3        30.10S
$$

TXZ095>097-106>112-122>126-135>138-148>153-164>167-201100-
EAST TEXAS

CITY           SKY/WX    TMP DP  RH WIND       PRES   REMARKS
PARIS          PTCLDY    55  50  82 E8        30.12F
SULPHUR SPRNGS MOCLDY    62  53  73 S8        30.14R
CLARKSVILLE    PTCLDY    58  52  81 CALM      30.12F
MOUNT PLEASANT MOCLDY    53  53  97 CALM      30.14F
GILMER         MOCLDY    59  57  94 S3        30.15S
MINEOLA        CLOUDY    57  57 100 CALM      30.13S
TYLER          CLOUDY    62  55  77 S6        30.13S
LONGVIEW       CLOUDY    61  55  81 CALM      30.13S
MARSHALL       MOCLDY    56  53  91 CALM      30.16S
ATHENS         CLOUDY    59  55  88 CALM      30.12F
PALESTINE      MOCLDY    62  56  81 CALM      30.16S
JACKSONVILLE   MOCLDY    61  55  79 SW3       30.16S
HENDERSON      CLOUDY    57  55  90 CALM      30.15R
NACOGDOCHES    MOCLDY    52  48  87 CALM      30.15S
LUFKIN         PTCLDY    59  55  87 CALM      30.14S
$$

SUPPLEMENTAL OBSERVATIONS (CENTRAL)

CITY           SKY/WX    TMP DP  RH WIND       PRES   REMARKS
CADDO GRASSLND   N/A     57  52  82 S5          N/A
PAT MAYSE LAKE   N/A     61  52  72 SE7         N/A
GREENVILLE       N/A     59  54  82 SE3         N/A
CEDAR HILL       N/A     64  55  72 S7          N/A
MCGREGOR         N/A     59  55  88 SW3         N/A
$$

SUPPLEMENTAL OBSERVATIONS (WEST)

CITY           SKY/WX    TMP DP  RH WIND       PRES   REMARKS
MILLERS CREEK    N/A     63  54  72 S6          N/A
HAMBY            N/A     64  52  63 S10         N/A
IVIE RESERVOIR   N/A     63  55  77 E6          N/A
COLORADO BEND    N/A     63  55  77 S7          N/A
$$

SUPPLEMENTAL OBSERVATIONS (EAST)

CITY           SKY/WX    TMP DP  RH WIND       PRES   REMARKS
CLARKSVILLE      N/A     55  52  88 SE1         N/A
TEXARKANA        N/A     48  46  93 CALM        N/A
LINDEN           N/A     54  50  87 CALM        N/A
GILMER           N/A     55  52  88 CALM        N/A
HENDERSON        N/A     57  52  82 CALM        N/A
N SABINE NF      N/A     52  50  93 MISG        N/A
S SABINE NF      N/A     54  52  94 CALM        N/A
$$

SUPPLEMENTAL OBSERVATIONS ARE A COLLECTION OF AUTOMATED INSTRUMENTS
THAT ARE MAINTAINED BY A VARIETY OF FEDERAL AND STATE AGENCIES.
CERTAIN ELEMENTS...SUCH AS HUMIDITY VALUES AND SUSTAINED WIND
SPEEDS...MAY BE APPROXIMATED.




USA.gov is the U.S. government's official web portal to all federal, state and local government web resources and services.